Flag for U.S.A. Weather past 2 weeks in Santa Barbara, California, U.S.A.

Now
63 °F

Fog.


Feels Like: 63 °F
Forecast: 60 / 78 °F
Wind: 6 mph from South

Location: Santa Barbara Municipal Airport

Current Time: Jul 29, 2015 at 3:41:34 AM

Latest Report: Jul 29, 2015 at 2:53 AM


Visibility: 4 mi

Pressure: 29.90 "Hg

Humidity: 93%

Dew point: 61 °F

Location of Santa BarbaraLocation

Historic Weather in Santa Barbara — Graph

°F

Santa Barbara temperature yesterday

Maximum temperature yesterday: 74 °F (at 1:53 PM)
Minimum temperature yesterday: 58 °F (at 5:53 AM)
Average temperature yesterday: 66 °F

Past Weeks' High & Low Weather Summary

 TemperatureHumidityPressure
High87 °F (Jul 19, 1:53 PM)96% (Jul 21, 2:53 AM)30.08 "Hg (Jul 21, 2:53 AM)
Low55 °F (Jul 18, 1:53 AM)45% (Jul 19, 1:53 PM)29.80 "Hg (Jul 14, 7:53 PM)
Average69 °F77%29.92 "Hg
* Reported Jul 14 1:53 AM — Jul 29 1:53 AM, Santa Barbara, Weather by CustomWeather, © 2015

Note: Actual official high and low records may vary slightly from our data, if they occured in-between our weather recording intervals... More about our weather records

Advertising

Santa Barbara weather history for previous 24 hours

 ConditionsComfort  
Time TempWeatherWind HumidityBarometerVisibility
1:53 AM
Wed, Jul 29
63 °FFog.9 mph93%29.91 "Hg3 mi
12:53 AM64 °FFog.8 mph94%29.90 "Hg3 mi
11:53 PM
Tue, Jul 28
64 °FFog.8 mph90%29.90 "Hg5 mi
10:53 PM64 °FLow clouds.5 mph90%29.89 "Hg7 mi
9:53 PM63 °FPassing clouds.3 mph90%29.88 "Hg7 mi
8:53 PM65 °FSunny.6 mph87%29.85 "Hg8 mi
7:53 PM66 °FSunny.8 mph84%29.84 "Hg9 mi
6:53 PM68 °FSunny.12 mph78%29.85 "Hg9 mi
5:53 PM69 °FPassing clouds.15 mph76%29.85 "Hg8 mi
4:53 PM72 °FSunny.13 mph71%29.85 "Hg10 mi
3:53 PM73 °FSunny.14 mph69%29.87 "Hg10 mi
2:53 PM73 °FPassing clouds.9 mph69%29.89 "Hg10 mi
1:53 PM74 °FPassing clouds.10 mph67%29.90 "Hg10 mi
12:53 PM73 °FPassing clouds.8 mph69%29.90 "Hg10 mi
11:53 AM72 °FScattered clouds.7 mph71%29.91 "Hg9 mi
10:53 AM69 °FLow clouds.6 mph76%29.91 "Hg6 mi
9:53 AM67 °FLow clouds.7 mph81%29.92 "Hg6 mi
8:53 AM67 °FLow clouds.7 mph85%29.91 "Hg7 mi
7:53 AM68 °FPartly sunny.5 mph78%29.90 "Hg9 mi
7:03 AM62 °FPassing clouds.No wind86%29.90 "Hg8 mi
6:53 AM60 °FPassing clouds.No wind90%29.90 "Hg8 mi
5:53 AM58 °FPassing clouds.No wind90%29.88 "Hg9 mi
4:53 AM59 °FClear.No wind90%29.87 "Hg10 mi
3:53 AM60 °FClear.No wind86%29.86 "Hg10 mi
Weather by CustomWeather, © 2015

See weather overviewHow to use our weather pages